Cleveland Burke, OH

3:41 AM EST on February 25, 2018 (GMT -0500)
Burke Lakefront

Weather History for KBKL - October, 2014

Change the Weather History Date:

Sunday, October 5, 2014

  Actual Average Record
Temperature  
Mean Temperature 48 °F -  
Max Temperature 54 °F 64 °F 84 °F (2007)
Min Temperature 43 °F 50 °F 41 °F (1996)
Degree Days  
Heating Degree Days 16    
Moisture  
Dew Point 35 °F    
Average Humidity 61    
Maximum Humidity 80    
Minimum Humidity 44    
Precipitation  
Precipitation 0.00 in - - ()
Sea Level Pressure  
Sea Level Pressure 29.78 in    
Wind  
Wind Speed 17 mph (SSW)    
Max Wind Speed 23 mph    
Max Gust Speed 29 mph    
Visibility 10 miles    
Events      
Averages and records for this station are not official NWS values.
T = Trace of Precipitation, MM = Missing Value Source: NWS Daily Summary

Daily Weather History Graph

Daily Weather History Graph

Search for Another Location

Airport or City:

Trip Planner

Search our weather history database for the weather conditions in past years. The results will help you decide how hot, cold, wet, or windy it might be!

Date:

Astronomy

Oct. 05, 2014 Rise Set
Actual Time 7:27 AM EDT 7:01 PM EDT
Civil Twilight 7:00 AM EDT 7:29 PM EDT
Nautical Twilight 6:27 AM EDT 8:01 PM EDT
Astronomical Twilight 5:55 AM EDT 8:33 PM EDT
Moon 5:20 PM EDT (10/5) 4:00 AM EDT (10/5)
Length of Visible Light 12h 29m
Length of Day
11h 34m
Waxing Gibbous, 89% of the Moon is Illuminated
Oct 5
Waxing Gibbous
Oct 8
Full
Oct 15
Last Quarter
Oct 23
New
Oct 30
First Quarter

Hourly Weather History & Observations

Time (EDT) Temp. Windchill Dew Point Humidity Pressure Visibility Wind Dir Wind Speed Gust Speed Precip Events Conditions
12:53 AM 43.0 °F 33.8 °F 36.0 °F 76% 29.75 in 10.0 mi SSW 23.0 mph 28.8 mph 0.00 in   Overcast
1:53 AM 43.0 °F 33.8 °F 37.0 °F 80% 29.75 in 10.0 mi SW 23.0 mph 28.8 mph 0.00 in   Overcast
2:53 AM 44.1 °F 36.2 °F 36.0 °F 73% 29.75 in 10.0 mi SSW 18.4 mph 26.5 mph N/A   Overcast
3:31 AM 44.1 °F 36.2 °F 36.0 °F 73% 29.74 in 10.0 mi SW 18.4 mph 28.8 mph N/A   Overcast
3:42 AM 44.1 °F 35.9 °F 36.0 °F 73% 29.74 in 10.0 mi SSW 19.6 mph 25.3 mph N/A   Overcast
3:53 AM 44.1 °F 36.5 °F 36.0 °F 73% 29.75 in 10.0 mi SSW 17.3 mph - N/A   Overcast
4:32 AM 44.1 °F 36.2 °F 35.1 °F 71% 29.74 in 10.0 mi SSW 18.4 mph 26.5 mph N/A   Overcast
4:53 AM 44.1 °F 37.7 °F 35.1 °F 71% 29.76 in 10.0 mi SSW 12.7 mph 21.9 mph N/A   Mostly Cloudy
5:53 AM 44.1 °F 36.8 °F 35.1 °F 71% 29.76 in 10.0 mi SSW 16.1 mph 24.2 mph N/A   Mostly Cloudy
6:53 AM 43.0 °F 35.1 °F 34.0 °F 71% 29.77 in 10.0 mi SSW 17.3 mph 26.5 mph N/A   Partly Cloudy
7:53 AM 44.1 °F 37.4 °F 34.0 °F 68% 29.79 in 10.0 mi SSW 13.8 mph - N/A   Mostly Cloudy
8:53 AM 45.0 °F 37.9 °F 35.1 °F 68% 29.80 in 10.0 mi SW 16.1 mph 25.3 mph N/A   Overcast
9:53 AM 48.0 °F - 36.0 °F 63% 29.81 in 10.0 mi SW 13.8 mph 23.0 mph N/A   Clear
10:53 AM 51.1 °F - 35.1 °F 54% 29.82 in 10.0 mi SSW 16.1 mph 23.0 mph N/A   Clear
11:53 AM 51.1 °F - 35.1 °F 54% 29.83 in 10.0 mi SW 13.8 mph - N/A   Overcast
12:53 PM 50.0 °F - 33.1 °F 52% 29.82 in 10.0 mi SW 11.5 mph - N/A   Overcast
1:53 PM 51.1 °F - 32.0 °F 48% 29.81 in 10.0 mi SSW 15.0 mph - N/A   Overcast
2:53 PM 51.1 °F - 30.0 °F 44% 29.80 in 10.0 mi SW 17.3 mph - N/A   Overcast
3:53 PM 51.1 °F - 30.9 °F 46% 29.80 in 10.0 mi SSW 13.8 mph - N/A   Overcast
4:53 PM 54.0 °F - 33.1 °F 45% 29.78 in 10.0 mi South 17.3 mph - N/A   Mostly Cloudy
5:53 PM 53.1 °F - 33.1 °F 47% 29.78 in 10.0 mi South 9.2 mph - N/A   Mostly Cloudy
6:53 PM 51.1 °F - 35.1 °F 54% 29.77 in 10.0 mi SE 8.1 mph - N/A   Clear
7:53 PM 50.0 °F - 35.1 °F 57% 29.78 in 10.0 mi SSE 9.2 mph - N/A   Mostly Cloudy
8:53 PM 51.1 °F - 35.1 °F 54% 29.78 in 10.0 mi SSE 13.8 mph - N/A   Overcast
9:53 PM 51.1 °F - 36.0 °F 56% 29.78 in 10.0 mi SSE 10.4 mph - N/A   Overcast
10:53 PM 51.1 °F - 35.1 °F 54% 29.78 in 10.0 mi SSE 11.5 mph 21.9 mph N/A   Overcast
11:53 PM 53.1 °F - 35.1 °F 50% 29.78 in 10.0 mi South 15.0 mph - 0.00 in   Overcast